Simultaneous Nadir Overpasses (SNOs) Predictions

Prediction of SNOs between TERRA and METOP-C Satellite Orbit:

Table of predicted SNOs for the next 14.0 days since TLE Epoch: 8/31/2019
Index Date (TERRA) Time (TERRA) Lat,Lon (TERRA) SZA (TERRA ) Date (METOP-C) Time (METOP-C) Lat,Lon (METOP-C) SZA (METOP-C ) Distance(km) Time Diff (sec)
1 09/01/2019 12:08:09 -81.30,-134.97 104.18 09/01/2019 12:07:57 -81.31,-134.86 104.16 1.94 12
2 09/01/2019 12:57:35 81.31, 32.85 75.87 09/01/2019 12:58:37 81.31, 32.84 75.90 0.15 62
3 09/04/2019 07:42:23 -81.30, -68.46 103.12 09/04/2019 07:42:19 -81.31, -68.31 103.10 2.52 4
4 09/04/2019 08:31:49 81.31, 99.34 76.92 09/04/2019 08:32:59 81.31, 99.33 76.96 0.08 70
5 09/07/2019 02:27:11 81.29,-169.88 77.91 09/07/2019 02:26:02 81.30,-169.86 77.88 0.84 69
6 09/07/2019 03:16:37 -81.31, -1.97 102.04 09/07/2019 03:16:42 -81.30, -2.14 102.06 2.98 5
7 09/09/2019 22:01:24 81.29,-103.44 78.98 09/09/2019 22:00:23 81.30,-103.37 78.97 1.51 61
8 09/09/2019 22:50:50 -81.31, 64.50 100.96 09/09/2019 22:51:03 -81.31, 64.41 100.97 1.44 13
9 09/12/2019 17:35:37 81.31, -36.65 80.13 09/12/2019 17:34:44 81.31, -36.49 80.12 2.75 53




NCC Satellite Simultaneous Nadir Overpasses (SNOs) Prediction Service
